Year,Month,Day,Hour,Minute,Value (Times are PST for temperature in C)
2017,05,25,00,00,9.70
2017,05,25,00,01,9.70
2017,05,25,00,02,9.70
2017,05,25,00,03,9.70
2017,05,25,00,04,9.70
2017,05,25,00,05,9.70
2017,05,25,00,06,9.70
2017,05,25,00,07,9.70
2017,05,25,00,08,9.70
2017,05,25,00,09,9.70
2017,05,25,00,10,9.60
2017,05,25,00,11,9.60
2017,05,25,00,12,9.50
2017,05,25,00,13,9.40
2017,05,25,00,14,9.40
2017,05,25,00,15,9.40
2017,05,25,00,16,9.30
2017,05,25,00,17,9.30
2017,05,25,00,18,9.30
2017,05,25,00,19,9.30
2017,05,25,00,20,9.30
2017,05,25,00,21,9.20
2017,05,25,00,22,9.20
2017,05,25,00,23,9.20
2017,05,25,00,24,9.20
2017,05,25,00,25,9.10
2017,05,25,00,26,9.10
2017,05,25,00,27,9.10
2017,05,25,00,28,9.00
2017,05,25,00,29,9.00
2017,05,25,00,30,8.90
2017,05,25,00,31,8.90
2017,05,25,00,32,8.80
2017,05,25,00,33,8.80
2017,05,25,00,34,8.80
2017,05,25,00,35,8.80
2017,05,25,00,36,8.80
2017,05,25,00,37,8.80
2017,05,25,00,38,8.80
2017,05,25,00,39,8.80
2017,05,25,00,40,8.70
2017,05,25,00,41,8.70
2017,05,25,00,42,8.70
2017,05,25,00,43,8.70
2017,05,25,00,44,8.70
2017,05,25,00,45,8.70
2017,05,25,00,46,8.70
2017,05,25,00,47,8.70
2017,05,25,00,48,8.70
2017,05,25,00,49,8.70
2017,05,25,00,50,8.70
2017,05,25,00,51,8.70
2017,05,25,00,52,8.70
2017,05,25,00,53,8.70
2017,05,25,00,54,8.70
2017,05,25,00,55,8.70
2017,05,25,00,56,8.70
2017,05,25,00,57,8.60
2017,05,25,00,58,8.60
2017,05,25,00,59,8.60
2017,05,25,01,00,8.60
2017,05,25,01,01,8.60
2017,05,25,01,02,8.60
2017,05,25,01,03,8.50
2017,05,25,01,04,8.50
2017,05,25,01,05,8.50
2017,05,25,01,06,8.50
2017,05,25,01,07,8.50
2017,05,25,01,08,8.50
2017,05,25,01,09,8.50
2017,05,25,01,10,8.50
2017,05,25,01,11,8.40
2017,05,25,01,12,8.40
2017,05,25,01,13,8.40
2017,05,25,01,14,8.40
2017,05,25,01,15,8.40
2017,05,25,01,16,8.40
2017,05,25,01,17,8.40
2017,05,25,01,18,8.40
2017,05,25,01,19,8.40
2017,05,25,01,20,8.40
2017,05,25,01,21,8.40
2017,05,25,01,22,8.40
2017,05,25,01,23,8.40
2017,05,25,01,24,8.40
2017,05,25,01,25,8.40
2017,05,25,01,26,8.30
2017,05,25,01,27,8.30
2017,05,25,01,28,8.30
2017,05,25,01,29,8.30
2017,05,25,01,30,8.30
2017,05,25,01,31,8.20
2017,05,25,01,32,8.20
2017,05,25,01,33,8.20
2017,05,25,01,34,8.20
2017,05,25,01,35,8.10
2017,05,25,01,36,8.10
2017,05,25,01,37,8.10
2017,05,25,01,38,8.10
2017,05,25,01,39,8.10
2017,05,25,01,40,8.10
2017,05,25,01,41,8.10
2017,05,25,01,42,8.10
2017,05,25,01,43,8.00
2017,05,25,01,44,8.00
2017,05,25,01,45,8.00
2017,05,25,01,46,8.00
2017,05,25,01,47,8.00
2017,05,25,01,48,8.00
2017,05,25,01,49,8.00
2017,05,25,01,50,7.90
2017,05,25,01,51,7.90
2017,05,25,01,52,7.90
2017,05,25,01,53,7.90
2017,05,25,01,54,7.90
2017,05,25,01,55,7.90
2017,05,25,01,56,7.90
2017,05,25,01,57,7.90
2017,05,25,01,58,7.90
2017,05,25,01,59,7.90
2017,05,25,02,00,7.90
2017,05,25,02,01,7.90
2017,05,25,02,02,7.90
2017,05,25,02,03,7.90
2017,05,25,02,04,7.90
2017,05,25,02,05,7.90
2017,05,25,02,06,7.80
2017,05,25,02,07,7.80
2017,05,25,02,08,7.80
2017,05,25,02,09,7.80
2017,05,25,02,10,7.80
2017,05,25,02,11,7.80
2017,05,25,02,12,7.80
2017,05,25,02,13,7.80
2017,05,25,02,14,7.80
2017,05,25,02,15,7.80
2017,05,25,02,16,7.70
2017,05,25,02,17,7.70
2017,05,25,02,18,7.70
2017,05,25,02,19,7.70
2017,05,25,02,20,7.70
2017,05,25,02,21,7.70
2017,05,25,02,22,7.70
2017,05,25,02,23,7.70
2017,05,25,02,24,7.70
2017,05,25,02,25,7.70
2017,05,25,02,26,7.70
2017,05,25,02,27,7.70
2017,05,25,02,28,7.70
2017,05,25,02,29,7.70
2017,05,25,02,30,7.70
2017,05,25,02,31,7.70
2017,05,25,02,32,7.70
2017,05,25,02,33,7.70
2017,05,25,02,34,7.70
2017,05,25,02,35,7.70
2017,05,25,02,36,7.70
2017,05,25,02,37,7.70
2017,05,25,02,38,7.70
2017,05,25,02,39,7.70
2017,05,25,02,40,7.70
2017,05,25,02,41,7.70
2017,05,25,02,42,7.70
2017,05,25,02,43,7.70
2017,05,25,02,44,7.60
2017,05,25,02,45,7.60
2017,05,25,02,46,7.60
2017,05,25,02,47,7.60
2017,05,25,02,48,7.60
2017,05,25,02,49,7.60
2017,05,25,02,50,7.60
2017,05,25,02,51,7.60
2017,05,25,02,52,7.60
2017,05,25,02,53,7.60
2017,05,25,02,54,7.60
2017,05,25,02,55,7.60
2017,05,25,02,56,7.60
2017,05,25,02,57,7.60
2017,05,25,02,58,7.60
2017,05,25,02,59,7.60
2017,05,25,03,00,7.60
2017,05,25,03,01,7.60
2017,05,25,03,02,7.60
2017,05,25,03,03,7.60
2017,05,25,03,04,7.60
2017,05,25,03,05,7.60
2017,05,25,03,06,7.60
2017,05,25,03,07,7.60
2017,05,25,03,08,7.60
2017,05,25,03,09,7.60
2017,05,25,03,10,7.60
2017,05,25,03,11,7.60
2017,05,25,03,12,7.60
2017,05,25,03,13,7.60
2017,05,25,03,14,7.60
2017,05,25,03,15,7.60
2017,05,25,03,16,7.60
2017,05,25,03,17,7.60
2017,05,25,03,18,7.50
2017,05,25,03,19,7.50
2017,05,25,03,20,7.50
2017,05,25,03,21,7.40
2017,05,25,03,22,7.40
2017,05,25,03,23,7.40
2017,05,25,03,24,7.40
2017,05,25,03,25,7.40
2017,05,25,03,26,7.40
2017,05,25,03,27,7.40
2017,05,25,03,28,7.40
2017,05,25,03,29,7.40
2017,05,25,03,30,7.40
2017,05,25,03,31,7.40
2017,05,25,03,32,7.40
2017,05,25,03,33,7.40
2017,05,25,03,34,7.40
2017,05,25,03,35,7.40
2017,05,25,03,36,7.40
2017,05,25,03,37,7.50
2017,05,25,03,38,7.50
2017,05,25,03,39,7.50
2017,05,25,03,40,7.50
2017,05,25,03,41,7.60
2017,05,25,03,42,7.60
2017,05,25,03,43,7.60
2017,05,25,03,44,7.60
2017,05,25,03,45,7.60
2017,05,25,03,46,7.60
2017,05,25,03,47,7.60
2017,05,25,03,48,7.60
2017,05,25,03,49,7.60
2017,05,25,03,50,7.60
2017,05,25,03,51,7.60
2017,05,25,03,52,7.60
2017,05,25,03,53,7.70
2017,05,25,03,54,7.70
2017,05,25,03,55,7.70
2017,05,25,03,56,7.70
2017,05,25,03,57,7.70
2017,05,25,03,58,7.70
2017,05,25,03,59,7.70
2017,05,25,04,00,7.70
2017,05,25,04,01,7.70
2017,05,25,04,02,7.70
2017,05,25,04,03,7.70
2017,05,25,04,04,7.70
2017,05,25,04,05,7.70
2017,05,25,04,06,7.70
2017,05,25,04,07,7.70
2017,05,25,04,08,7.70
2017,05,25,04,09,7.70
2017,05,25,04,10,7.70
2017,05,25,04,11,7.70
2017,05,25,04,12,7.70
2017,05,25,04,13,7.80
2017,05,25,04,14,7.70
2017,05,25,04,15,7.80
2017,05,25,04,16,7.80
2017,05,25,04,17,7.80
2017,05,25,04,18,7.80
2017,05,25,04,19,7.80
2017,05,25,04,20,7.80
2017,05,25,04,21,7.80
2017,05,25,04,22,7.80
2017,05,25,04,23,7.80
2017,05,25,04,24,7.80
2017,05,25,04,25,7.80
2017,05,25,04,26,7.80
2017,05,25,04,27,7.80
2017,05,25,04,28,7.80
2017,05,25,04,29,7.80
2017,05,25,04,30,7.80
2017,05,25,04,31,7.80
2017,05,25,04,32,7.80
2017,05,25,04,33,7.80
2017,05,25,04,34,7.80
2017,05,25,04,35,7.80
2017,05,25,04,36,7.80
2017,05,25,04,37,7.80
2017,05,25,04,38,7.80
2017,05,25,04,39,7.80
2017,05,25,04,40,7.70
2017,05,25,04,41,7.70
2017,05,25,04,42,7.70
2017,05,25,04,43,7.70
2017,05,25,04,44,7.70
2017,05,25,04,45,7.70
2017,05,25,04,46,7.60
2017,05,25,04,47,7.60
2017,05,25,04,48,7.60
2017,05,25,04,49,7.60
2017,05,25,04,50,7.60
2017,05,25,04,51,7.60
2017,05,25,04,52,7.60
2017,05,25,04,53,7.60
2017,05,25,04,54,7.60
2017,05,25,04,55,7.60
2017,05,25,04,56,7.60
2017,05,25,04,57,7.60
2017,05,25,04,58,7.60
2017,05,25,04,59,7.60
2017,05,25,05,00,7.60
2017,05,25,05,01,7.60
2017,05,25,05,02,7.60
2017,05,25,05,03,7.60
2017,05,25,05,04,7.50
2017,05,25,05,05,7.50
2017,05,25,05,06,7.50
2017,05,25,05,07,7.50
2017,05,25,05,08,7.50
2017,05,25,05,09,7.40
2017,05,25,05,10,7.40
2017,05,25,05,11,7.40
2017,05,25,05,12,7.40
2017,05,25,05,13,7.40
2017,05,25,05,14,7.40
2017,05,25,05,15,7.40
2017,05,25,05,16,7.30
2017,05,25,05,17,7.30
2017,05,25,05,18,7.30
2017,05,25,05,19,7.30
2017,05,25,05,20,7.30
2017,05,25,05,21,7.30
2017,05,25,05,22,7.30
2017,05,25,05,23,7.30
2017,05,25,05,24,7.30
2017,05,25,05,25,7.30
2017,05,25,05,26,7.30
2017,05,25,05,27,7.30
2017,05,25,05,28,7.30
2017,05,25,05,29,7.30
2017,05,25,05,30,7.30
2017,05,25,05,31,7.30
2017,05,25,05,32,7.20
2017,05,25,05,33,7.20
2017,05,25,05,34,7.20
2017,05,25,05,35,7.20
2017,05,25,05,36,7.20
2017,05,25,05,37,7.20
2017,05,25,05,38,7.20
2017,05,25,05,39,7.20
2017,05,25,05,40,7.20
2017,05,25,05,41,7.20
2017,05,25,05,42,7.20
2017,05,25,05,43,7.20
2017,05,25,05,44,7.10
2017,05,25,05,45,7.10
2017,05,25,05,46,7.10
2017,05,25,05,47,7.10
2017,05,25,05,48,7.10
2017,05,25,05,49,7.10
2017,05,25,05,50,7.10
2017,05,25,05,51,7.20
2017,05,25,05,52,7.20
2017,05,25,05,53,7.20
2017,05,25,05,54,7.20
2017,05,25,05,55,7.20
2017,05,25,05,56,7.20
2017,05,25,05,57,7.20
2017,05,25,05,58,7.20
2017,05,25,05,59,7.20
2017,05,25,06,00,7.20
2017,05,25,06,01,7.10
2017,05,25,06,02,7.10
2017,05,25,06,03,7.20
2017,05,25,06,04,7.20
2017,05,25,06,05,7.20
2017,05,25,06,06,7.20
2017,05,25,06,07,7.20
2017,05,25,06,08,7.20
2017,05,25,06,09,7.20
2017,05,25,06,10,7.30
2017,05,25,06,11,7.30
2017,05,25,06,12,7.30
2017,05,25,06,13,7.30
2017,05,25,06,14,7.40
2017,05,25,06,15,7.40
2017,05,25,06,16,7.40
2017,05,25,06,17,7.50
2017,05,25,06,18,7.50
2017,05,25,06,19,7.60
2017,05,25,06,20,7.60
2017,05,25,06,21,7.60
2017,05,25,06,22,7.60
2017,05,25,06,23,7.60
2017,05,25,06,24,7.60
2017,05,25,06,25,7.70
2017,05,25,06,26,7.70
2017,05,25,06,27,7.70
2017,05,25,06,28,7.70
2017,05,25,06,29,7.80
2017,05,25,06,30,7.90
2017,05,25,06,31,8.00
2017,05,25,06,32,8.00
2017,05,25,06,33,8.10
2017,05,25,06,34,8.20
2017,05,25,06,35,8.30
2017,05,25,06,36,8.40
2017,05,25,06,37,8.40
2017,05,25,06,38,8.50
2017,05,25,06,39,8.60
2017,05,25,06,40,8.70
2017,05,25,06,41,8.80
2017,05,25,06,42,8.80
2017,05,25,06,43,8.80
2017,05,25,06,44,8.90
2017,05,25,06,45,8.90
2017,05,25,06,46,8.90
2017,05,25,06,47,8.90
2017,05,25,06,48,9.00
2017,05,25,06,49,9.10
2017,05,25,06,50,9.20
2017,05,25,06,51,9.20
2017,05,25,06,52,9.30
2017,05,25,06,53,9.40
2017,05,25,06,54,9.50
2017,05,25,06,55,9.60
2017,05,25,06,56,9.70
2017,05,25,06,57,9.80
2017,05,25,06,58,9.90
2017,05,25,06,59,10.00
2017,05,25,07,00,10.10
2017,05,25,07,01,10.20
2017,05,25,07,02,10.30
2017,05,25,07,03,10.40
2017,05,25,07,04,10.60
2017,05,25,07,05,10.70
2017,05,25,07,06,10.80
2017,05,25,07,07,10.90
2017,05,25,07,08,11.10
2017,05,25,07,09,11.20
2017,05,25,07,10,11.30
2017,05,25,07,11,11.40
2017,05,25,07,12,11.40
2017,05,25,07,13,11.50
2017,05,25,07,14,11.60
2017,05,25,07,15,11.60
2017,05,25,07,16,11.70
2017,05,25,07,17,11.70
2017,05,25,07,18,11.70
2017,05,25,07,19,11.70
2017,05,25,07,20,11.70
2017,05,25,07,21,11.70
2017,05,25,07,22,11.70
2017,05,25,07,23,11.70
2017,05,25,07,24,11.70
2017,05,25,07,25,11.70
2017,05,25,07,26,11.80
2017,05,25,07,27,11.80
2017,05,25,07,28,11.80
2017,05,25,07,29,11.90
2017,05,25,07,30,11.90
2017,05,25,07,31,12.00
2017,05,25,07,32,12.10
2017,05,25,07,33,12.10
2017,05,25,07,34,12.10
2017,05,25,07,35,12.20
2017,05,25,07,36,12.30
2017,05,25,07,37,12.40
2017,05,25,07,38,12.50
2017,05,25,07,39,12.50
2017,05,25,07,40,12.60
2017,05,25,07,41,12.60
2017,05,25,07,42,12.50
2017,05,25,07,43,12.50
2017,05,25,07,44,12.40
2017,05,25,07,45,12.30
2017,05,25,07,46,12.20
2017,05,25,07,47,12.10
2017,05,25,07,48,12.10
2017,05,25,07,49,12.10
2017,05,25,07,50,12.10
2017,05,25,07,51,12.10
2017,05,25,07,52,12.10
2017,05,25,07,53,12.10
2017,05,25,07,54,12.10
2017,05,25,07,55,12.10
2017,05,25,07,56,12.20
2017,05,25,07,57,12.40
2017,05,25,07,58,12.50
2017,05,25,07,59,12.60
2017,05,25,08,00,12.80
2017,05,25,08,01,12.90
2017,05,25,08,02,12.90
2017,05,25,08,03,12.90
2017,05,25,08,04,12.90
2017,05,25,08,05,13.00
2017,05,25,08,06,13.00
2017,05,25,08,07,13.00
2017,05,25,08,08,13.00
2017,05,25,08,09,13.10
2017,05,25,08,10,13.10
2017,05,25,08,11,13.10
2017,05,25,08,12,13.20
2017,05,25,08,13,13.20
2017,05,25,08,14,13.20
2017,05,25,08,15,13.20
2017,05,25,08,16,13.20
2017,05,25,08,17,13.20
2017,05,25,08,18,13.20
2017,05,25,08,19,13.20
2017,05,25,08,20,13.10
2017,05,25,08,21,13.20
2017,05,25,08,22,13.20
2017,05,25,08,23,13.30
2017,05,25,08,24,13.30
2017,05,25,08,25,13.40
2017,05,25,08,26,13.40
2017,05,25,08,27,13.40
2017,05,25,08,28,13.40
2017,05,25,08,29,13.40
2017,05,25,08,30,13.40
2017,05,25,08,31,13.40
2017,05,25,08,32,13.40
2017,05,25,08,33,13.40
2017,05,25,08,34,13.50
2017,05,25,08,35,13.50
2017,05,25,08,36,13.60
2017,05,25,08,37,13.60
2017,05,25,08,38,13.70
2017,05,25,08,39,13.70
2017,05,25,08,40,13.80
2017,05,25,08,41,13.90
2017,05,25,08,42,14.00
2017,05,25,08,43,14.10
2017,05,25,08,44,14.20
2017,05,25,08,45,14.20
2017,05,25,08,46,14.20
2017,05,25,08,47,14.20
2017,05,25,08,48,14.30
2017,05,25,08,49,14.30
2017,05,25,08,50,14.30
2017,05,25,08,51,14.30
2017,05,25,08,52,14.30
2017,05,25,08,53,14.30
2017,05,25,08,54,14.30
2017,05,25,08,55,14.30
2017,05,25,08,56,14.30
2017,05,25,08,57,14.40
2017,05,25,08,58,14.40
2017,05,25,08,59,14.40
2017,05,25,09,00,14.50
2017,05,25,09,01,14.60
2017,05,25,09,02,14.60
2017,05,25,09,03,14.60
2017,05,25,09,04,14.60
2017,05,25,09,05,14.70
2017,05,25,09,06,14.70
2017,05,25,09,07,14.70
2017,05,25,09,08,14.70
2017,05,25,09,09,14.80
2017,05,25,09,10,14.70
2017,05,25,09,11,14.70
2017,05,25,09,12,14.80
2017,05,25,09,13,14.80
2017,05,25,09,14,14.80
2017,05,25,09,15,14.70
2017,05,25,09,16,14.70
2017,05,25,09,17,14.70
2017,05,25,09,18,14.70
2017,05,25,09,19,14.70
2017,05,25,09,20,14.70
2017,05,25,09,21,14.70
2017,05,25,09,22,14.80
2017,05,25,09,23,14.80
2017,05,25,09,24,14.80
2017,05,25,09,25,14.70
2017,05,25,09,26,14.70
2017,05,25,09,27,14.80
2017,05,25,09,28,14.90
2017,05,25,09,29,14.90
2017,05,25,09,30,14.90
2017,05,25,09,31,14.90
2017,05,25,09,32,15.00
2017,05,25,09,33,15.10
2017,05,25,09,34,15.10
2017,05,25,09,35,15.30
2017,05,25,09,36,15.40
2017,05,25,09,37,15.50
2017,05,25,09,38,15.50
2017,05,25,09,39,15.50
2017,05,25,09,40,15.50
2017,05,25,09,41,15.50
2017,05,25,09,42,15.50
2017,05,25,09,43,15.50
2017,05,25,09,44,15.60
2017,05,25,09,45,15.50
2017,05,25,09,46,15.50
2017,05,25,09,47,15.60
2017,05,25,09,48,15.60
2017,05,25,09,49,15.60
2017,05,25,09,50,15.70
2017,05,25,09,51,15.80
2017,05,25,09,52,15.80
2017,05,25,09,53,15.80
2017,05,25,09,54,15.90
2017,05,25,09,55,15.90
2017,05,25,09,56,16.00
2017,05,25,09,57,16.00
2017,05,25,09,58,16.00
2017,05,25,09,59,16.00
2017,05,25,10,00,15.90
2017,05,25,10,01,15.80
2017,05,25,10,02,15.70
2017,05,25,10,03,15.60
2017,05,25,10,04,15.50
2017,05,25,10,05,15.50
2017,05,25,10,06,15.40
2017,05,25,10,07,15.30
2017,05,25,10,08,15.20
2017,05,25,10,09,15.20
2017,05,25,10,10,15.10
2017,05,25,10,11,15.10
2017,05,25,10,12,15.10
2017,05,25,10,13,15.20
2017,05,25,10,14,15.20
2017,05,25,10,15,15.20
2017,05,25,10,16,15.20
2017,05,25,10,17,15.20
2017,05,25,10,18,15.20
2017,05,25,10,19,15.20
2017,05,25,10,20,15.30
2017,05,25,10,21,15.40
2017,05,25,10,22,15.40
2017,05,25,10,23,15.40
2017,05,25,10,24,15.40
2017,05,25,10,25,15.40
2017,05,25,10,26,15.50
2017,05,25,10,27,15.60
2017,05,25,10,28,15.60
2017,05,25,10,29,15.60
2017,05,25,10,30,15.50
2017,05,25,10,31,15.40
2017,05,25,10,32,15.30
2017,05,25,10,33,15.30
2017,05,25,10,34,15.40
2017,05,25,10,35,15.50
2017,05,25,10,36,15.50
2017,05,25,10,37,15.50
2017,05,25,10,38,15.70
2017,05,25,10,39,15.90
2017,05,25,10,40,15.90
2017,05,25,10,41,15.80
2017,05,25,10,42,15.70
2017,05,25,10,43,15.70
2017,05,25,10,44,15.80
2017,05,25,10,45,15.70
2017,05,25,10,46,15.70
2017,05,25,10,47,15.70
2017,05,25,10,48,15.80
2017,05,25,10,49,15.90
2017,05,25,10,50,16.00
2017,05,25,10,51,16.20
2017,05,25,10,52,16.20
2017,05,25,10,53,16.30
2017,05,25,10,54,16.30
2017,05,25,10,55,16.40
2017,05,25,10,56,16.30
2017,05,25,10,57,16.20
2017,05,25,10,58,16.10
2017,05,25,10,59,16.10
2017,05,25,11,00,16.00
2017,05,25,11,01,15.80
2017,05,25,11,02,15.70
2017,05,25,11,03,15.70
2017,05,25,11,04,15.80
2017,05,25,11,05,15.80
2017,05,25,11,06,15.80
2017,05,25,11,07,16.00
2017,05,25,11,08,16.10
2017,05,25,11,09,16.20
2017,05,25,11,10,16.30
2017,05,25,11,11,16.50
2017,05,25,11,12,16.70
2017,05,25,11,13,16.70
2017,05,25,11,14,16.60
2017,05,25,11,15,16.60
2017,05,25,11,16,16.50
2017,05,25,11,17,16.30
2017,05,25,11,18,16.20
2017,05,25,11,19,16.10
2017,05,25,11,20,16.00
2017,05,25,11,21,15.90
2017,05,25,11,22,16.00
2017,05,25,11,23,16.00
2017,05,25,11,24,16.10
2017,05,25,11,25,16.10
2017,05,25,11,26,16.00
2017,05,25,11,27,16.00
2017,05,25,11,28,16.10
2017,05,25,11,29,16.20
2017,05,25,11,30,16.30
2017,05,25,11,31,16.30
2017,05,25,11,32,16.30
2017,05,25,11,33,16.40
2017,05,25,11,34,16.60
2017,05,25,11,35,16.70
2017,05,25,11,36,16.80
2017,05,25,11,37,16.90
2017,05,25,11,38,16.90
2017,05,25,11,39,16.90
2017,05,25,11,40,17.00
2017,05,25,11,41,17.00
2017,05,25,11,42,16.90
2017,05,25,11,43,17.00
2017,05,25,11,44,17.10
2017,05,25,11,45,17.10
2017,05,25,11,46,17.20
2017,05,25,11,47,17.10
2017,05,25,11,48,17.10
2017,05,25,11,49,17.10
2017,05,25,11,50,17.00
2017,05,25,11,51,16.90
2017,05,25,11,52,16.80
2017,05,25,11,53,16.80
2017,05,25,11,54,16.80
2017,05,25,11,55,16.80
2017,05,25,11,56,16.60
2017,05,25,11,57,16.50
2017,05,25,11,58,16.50
2017,05,25,11,59,16.60
2017,05,25,12,00,16.80
2017,05,25,12,01,16.80
2017,05,25,12,02,16.80
2017,05,25,12,03,16.70
2017,05,25,12,04,16.60
2017,05,25,12,05,16.60
2017,05,25,12,06,16.60
2017,05,25,12,07,16.60
2017,05,25,12,08,16.60
2017,05,25,12,09,16.60
2017,05,25,12,10,16.80
2017,05,25,12,11,16.90
2017,05,25,12,12,17.00
2017,05,25,12,13,17.10
2017,05,25,12,14,17.10
2017,05,25,12,15,17.00
2017,05,25,12,16,17.00
2017,05,25,12,17,16.90
2017,05,25,12,18,16.90
2017,05,25,12,19,16.90
2017,05,25,12,20,16.90
2017,05,25,12,21,17.00
2017,05,25,12,22,17.00
2017,05,25,12,23,16.80
2017,05,25,12,24,16.90
2017,05,25,12,25,17.00
2017,05,25,12,26,17.10
2017,05,25,12,27,17.20
2017,05,25,12,28,17.30
2017,05,25,12,29,17.40
2017,05,25,12,30,17.40
2017,05,25,12,31,17.50
2017,05,25,12,32,17.60
2017,05,25,12,33,17.70
2017,05,25,12,34,17.80
2017,05,25,12,35,17.90
2017,05,25,12,36,18.00
2017,05,25,12,37,18.00
2017,05,25,12,38,18.00
2017,05,25,12,39,18.10
2017,05,25,12,40,18.20
2017,05,25,12,41,18.20
2017,05,25,12,42,18.20
2017,05,25,12,43,18.30
2017,05,25,12,44,18.30
2017,05,25,12,45,18.30
2017,05,25,12,46,18.20
2017,05,25,12,47,18.00
2017,05,25,12,48,17.90
2017,05,25,12,49,17.90
2017,05,25,12,50,18.00
2017,05,25,12,51,18.00
2017,05,25,12,52,18.00
2017,05,25,12,53,18.10
2017,05,25,12,54,18.10
2017,05,25,12,55,18.10
2017,05,25,12,56,18.10
2017,05,25,12,57,18.10
2017,05,25,12,58,18.30
2017,05,25,12,59,18.40
2017,05,25,13,00,18.50
2017,05,25,13,01,18.60
2017,05,25,13,02,18.70
2017,05,25,13,03,18.70
2017,05,25,13,04,18.70
2017,05,25,13,05,18.70
2017,05,25,13,06,18.60
2017,05,25,13,07,18.60
2017,05,25,13,08,18.50
2017,05,25,13,09,18.40
2017,05,25,13,10,18.30
2017,05,25,13,11,18.20
2017,05,25,13,12,18.30
2017,05,25,13,13,18.40
2017,05,25,13,14,18.50
2017,05,25,13,15,18.50
2017,05,25,13,16,18.20
2017,05,25,13,17,18.00
2017,05,25,13,18,17.90
2017,05,25,13,19,18.00
2017,05,25,13,20,18.00
2017,05,25,13,21,18.00
2017,05,25,13,22,18.00
2017,05,25,13,23,18.00
2017,05,25,13,24,18.10
2017,05,25,13,25,18.20
2017,05,25,13,26,18.20
2017,05,25,13,27,18.00
2017,05,25,13,28,17.80
2017,05,25,13,29,17.80
2017,05,25,13,30,17.90
2017,05,25,13,31,17.90
2017,05,25,13,32,18.10
2017,05,25,13,33,18.20
2017,05,25,13,34,18.20
2017,05,25,13,35,18.30
2017,05,25,13,36,18.30
2017,05,25,13,37,18.20
2017,05,25,13,38,18.10
2017,05,25,13,39,18.10
2017,05,25,13,40,18.20
2017,05,25,13,41,18.20
2017,05,25,13,42,18.10
2017,05,25,13,43,17.90
2017,05,25,13,44,17.90
2017,05,25,13,45,17.90
2017,05,25,13,46,17.90
2017,05,25,13,47,18.00
2017,05,25,13,48,17.90
2017,05,25,13,49,17.80
2017,05,25,13,50,17.70
2017,05,25,13,51,17.50
2017,05,25,13,52,17.40
2017,05,25,13,53,17.30
2017,05,25,13,54,17.20
2017,05,25,13,55,17.20
2017,05,25,13,56,17.20
2017,05,25,13,57,17.10
2017,05,25,13,58,17.00
2017,05,25,13,59,17.00
2017,05,25,14,00,16.90
2017,05,25,14,01,16.80
2017,05,25,14,02,16.60
2017,05,25,14,03,16.40
2017,05,25,14,04,16.50
2017,05,25,14,05,16.50
2017,05,25,14,06,16.50
2017,05,25,14,07,16.60
2017,05,25,14,08,16.80
2017,05,25,14,09,16.90
2017,05,25,14,10,17.00
2017,05,25,14,11,17.10
2017,05,25,14,12,17.10
2017,05,25,14,13,17.10
2017,05,25,14,14,17.10
2017,05,25,14,15,17.20
2017,05,25,14,16,17.40
2017,05,25,14,17,17.50
2017,05,25,14,18,17.50
2017,05,25,14,19,17.50
2017,05,25,14,20,17.50
2017,05,25,14,21,17.40
2017,05,25,14,22,17.40
2017,05,25,14,23,17.40
2017,05,25,14,24,17.40
2017,05,25,14,25,17.40
2017,05,25,14,26,17.40
2017,05,25,14,27,17.30
2017,05,25,14,28,17.20
2017,05,25,14,29,17.20
2017,05,25,14,30,17.20
2017,05,25,14,31,17.20
2017,05,25,14,32,17.10
2017,05,25,14,33,17.00
2017,05,25,14,34,17.00
2017,05,25,14,35,17.00
2017,05,25,14,36,16.90
2017,05,25,14,37,17.00
2017,05,25,14,38,17.20
2017,05,25,14,39,17.50
2017,05,25,14,40,17.70
2017,05,25,14,41,17.80
2017,05,25,14,42,17.80
2017,05,25,14,43,17.90
2017,05,25,14,44,17.80
2017,05,25,14,45,17.70
2017,05,25,14,46,17.70
2017,05,25,14,47,17.70
2017,05,25,14,48,17.70
2017,05,25,14,49,17.70
2017,05,25,14,50,17.80
2017,05,25,14,51,17.80
2017,05,25,14,52,17.80
2017,05,25,14,53,17.90
2017,05,25,14,54,18.10
2017,05,25,14,55,18.20
2017,05,25,14,56,18.40
2017,05,25,14,57,18.60
2017,05,25,14,58,18.40
2017,05,25,14,59,18.30
2017,05,25,15,00,18.20
2017,05,25,15,01,18.10
2017,05,25,15,02,17.90
2017,05,25,15,03,17.80
2017,05,25,15,04,17.80
2017,05,25,15,05,17.90
2017,05,25,15,06,17.90
2017,05,25,15,07,17.80
2017,05,25,15,08,17.70
2017,05,25,15,09,17.60
2017,05,25,15,10,17.70
2017,05,25,15,11,17.70
2017,05,25,15,12,17.50
2017,05,25,15,13,17.30
2017,05,25,15,14,17.20
2017,05,25,15,15,17.10
2017,05,25,15,16,17.10
2017,05,25,15,17,17.20
2017,05,25,15,18,17.30
2017,05,25,15,19,17.30
2017,05,25,15,20,17.40
2017,05,25,15,21,17.50
2017,05,25,15,22,17.70
2017,05,25,15,23,17.90
2017,05,25,15,24,17.90
2017,05,25,15,25,17.90
2017,05,25,15,26,17.90
2017,05,25,15,27,17.80
2017,05,25,15,28,17.90
2017,05,25,15,29,18.10
2017,05,25,15,30,18.20
2017,05,25,15,31,18.10
2017,05,25,15,32,18.10
2017,05,25,15,33,18.00
2017,05,25,15,34,18.00
2017,05,25,15,35,18.10
2017,05,25,15,36,18.10
2017,05,25,15,37,18.10
2017,05,25,15,38,18.20
2017,05,25,15,39,18.20
2017,05,25,15,40,18.20
2017,05,25,15,41,18.10
2017,05,25,15,42,18.00
2017,05,25,15,43,17.90
2017,05,25,15,44,17.90
2017,05,25,15,45,17.90
2017,05,25,15,46,17.90
2017,05,25,15,47,18.00
2017,05,25,15,48,17.90
2017,05,25,15,49,17.70
2017,05,25,15,50,17.70
2017,05,25,15,51,17.60
2017,05,25,15,52,17.60
2017,05,25,15,53,17.60
2017,05,25,15,54,17.60
2017,05,25,15,55,17.60
2017,05,25,15,56,17.70
2017,05,25,15,57,17.90
2017,05,25,15,58,18.10
2017,05,25,15,59,18.20
2017,05,25,16,00,18.20
2017,05,25,16,01,18.20
2017,05,25,16,02,18.20
2017,05,25,16,03,18.20
2017,05,25,16,04,18.20
2017,05,25,16,05,18.30
2017,05,25,16,06,18.30
2017,05,25,16,07,18.30
2017,05,25,16,08,18.30
2017,05,25,16,09,18.40
2017,05,25,16,10,18.40
2017,05,25,16,11,18.30
2017,05,25,16,12,18.30
2017,05,25,16,13,18.30
2017,05,25,16,14,18.40
2017,05,25,16,15,18.40
2017,05,25,16,16,18.40
2017,05,25,16,17,18.50
2017,05,25,16,18,18.50
2017,05,25,16,19,18.40
2017,05,25,16,20,18.20
2017,05,25,16,21,18.00
2017,05,25,16,22,17.80
2017,05,25,16,23,17.80
2017,05,25,16,24,17.80
2017,05,25,16,25,17.90
2017,05,25,16,26,17.90
2017,05,25,16,27,17.80
2017,05,25,16,28,17.70
2017,05,25,16,29,17.70
2017,05,25,16,30,17.70
2017,05,25,16,31,17.70
2017,05,25,16,32,17.70
2017,05,25,16,33,17.70
2017,05,25,16,34,17.80
2017,05,25,16,35,17.70
2017,05,25,16,36,17.70
2017,05,25,16,37,17.90
2017,05,25,16,38,17.90
2017,05,25,16,39,17.80
2017,05,25,16,40,17.80
2017,05,25,16,41,17.80
2017,05,25,16,42,17.90
2017,05,25,16,43,17.90
2017,05,25,16,44,17.90
2017,05,25,16,45,18.00
2017,05,25,16,46,18.10
2017,05,25,16,47,18.10
2017,05,25,16,48,18.00
2017,05,25,16,49,17.90
2017,05,25,16,50,17.90
2017,05,25,16,51,18.00
2017,05,25,16,52,17.90
2017,05,25,16,53,17.90
2017,05,25,16,54,17.90
2017,05,25,16,55,18.00
2017,05,25,16,56,18.00
2017,05,25,16,57,17.90
2017,05,25,16,58,17.90
2017,05,25,16,59,18.10
2017,05,25,17,00,18.20
2017,05,25,17,01,18.20
2017,05,25,17,02,18.10
2017,05,25,17,03,18.00
2017,05,25,17,04,18.00
2017,05,25,17,05,18.20
2017,05,25,17,06,18.10
2017,05,25,17,07,18.10
2017,05,25,17,08,17.90
2017,05,25,17,09,17.80
2017,05,25,17,10,17.80
2017,05,25,17,11,17.80
2017,05,25,17,12,17.90
2017,05,25,17,13,17.90
2017,05,25,17,14,17.90
2017,05,25,17,15,17.90
2017,05,25,17,16,17.80
2017,05,25,17,17,17.80
2017,05,25,17,18,17.80
2017,05,25,17,19,17.80
2017,05,25,17,20,17.70
2017,05,25,17,21,17.70
2017,05,25,17,22,17.70
2017,05,25,17,23,17.70
2017,05,25,17,24,17.70
2017,05,25,17,25,17.60
2017,05,25,17,26,17.60
2017,05,25,17,27,17.70
2017,05,25,17,28,17.80
2017,05,25,17,29,17.90
2017,05,25,17,30,18.00
2017,05,25,17,31,18.00
2017,05,25,17,32,18.00
2017,05,25,17,33,17.80
2017,05,25,17,34,17.60
2017,05,25,17,35,17.50
2017,05,25,17,36,17.40
2017,05,25,17,37,17.40